{"data":{"norad_id":58749,"epoch":"2026-09-20T04:08:04.654176Z","epoch_age_seconds":180754,"freshness":"STALE","line1":"1 58749U 24005X   26263.17227609  .00000112  00000+0  13614-4 0  9999","line2":"2 58749  43.0023 201.6678 0001488 268.2580  91.8101 15.27577893150188","mean_motion":15.27577893,"eccentricity":0.0001488,"inclination_deg":43.0023,"raan_deg":201.6678,"arg_perigee_deg":268.258,"mean_anomaly_deg":91.8101,"bstar":1.3614e-5,"rev_number":15018,"period_min":94.266878736507,"perigee_km":482.03445973301,"apogee_km":484.07635059278,"semimajor_km":6861.1924051629,"source":"CELESTRAK","updated_at":"2026-09-21T09:00:33.955832Z"}}